Weather History for Chicago Executive, IL

Change the Weather History Date:

Monday, May 27, 2013

  Actual Average Record
Temperature  
Mean Temperature 55 °F 62 °F  
Max Temperature 57 °F 73 °F 95 °F (2012)
Min Temperature 52 °F 51 °F 42 °F (2008)
Degree Days  
Heating Degree Days 10 5  
Month to date heating degree days 225 228  
Since 1 July heating degree days 6315 6341  
Cooling Degree Days 0 2  
Month to date cooling degree days 44 29  
Year to date cooling degree days 53 33  
Growing Degree Days 4 (Base 50)    
Moisture  
Dew Point 50 °F    
Average Humidity 84    
Maximum Humidity 90    
Minimum Humidity 67    
Precipitation  
Precipitation 0.09 in 0.10 in 0.40 in (2000)
Month to date precipitation 2.63 3.27  
Year to date precipitation 9.08 11.07  
Sea Level Pressure  
Sea Level Pressure 30.02 in    
Wind  
Wind Speed 7 mph (East)    
Max Wind Speed 15 mph    
Max Gust Speed 18 mph    
Visibility 8 miles    
Events Rain , Thunderstorm    
T = Trace of Precipitation, MM = Missing Value Source: NWS Daily Summary

Daily Weather History Graph

Daily Weather History Graph

Search for Another Location

Airport:

Trip Planner

Search our weather history database for the weather conditions in past years. The results will help you decide how hot, cold, wet, or windy it might be!

Date:

Astronomy

May. 27, 2013 Rise Set
Actual Time 5:20 AM CDT 8:17 PM CDT
Civil Twilight 4:47 AM CDT 8:50 PM CDT
Nautical Twilight 4:05 AM CDT 9:33 PM CDT
Astronomical Twilight 3:16 AM CDT 10:22 PM CDT
Moon 10:55 PM CDT (5/27) 7:58 AM CDT (5/27)
Length of Visible Light 16h 03m
Length of Day
14h 56m
Waning Gibbous, 91% of the Moon is Illuminated
May 27
Waning Gibbous
May 31
Last Quarter
Jun 8
New
Jun 16
First Quarter
Jun 23
Full

Hourly Weather History & Observations

Time (CDT) Temp. Dew Point Humidity Pressure Visibility Wind Dir Wind Speed Gust Speed Precip Events Conditions
12:06 AM 53.6 °F 42.8 °F 67% 30.17 in 10.0 mi NNE 3.5 mph - N/A Thunderstorm Overcast
12:21 AM 53.6 °F 42.8 °F 67% 30.17 in 10.0 mi NNE 5.8 mph - N/A   Overcast
12:52 AM 52.0 °F 43.0 °F 71% 30.17 in 10.0 mi Calm Calm - N/A   Overcast
1:52 AM 52.0 °F 44.1 °F 74% 30.14 in 10.0 mi Calm Calm - 0.00 in   Overcast
2:52 AM 54.0 °F 46.0 °F 75% 30.13 in 10.0 mi Calm Calm - N/A   Overcast
3:07 AM 53.6 °F 46.4 °F 77% 30.12 in 9.0 mi East 3.5 mph - N/A   Overcast
3:52 AM 55.0 °F 51.1 °F 86% 30.09 in 5.0 mi East 5.8 mph - 0.00 in Rain Light Rain
4:52 AM 57.0 °F 53.1 °F 87% 30.08 in 7.0 mi ESE 6.9 mph - 0.00 in   Overcast
5:04 AM 57.2 °F 53.6 °F 88% 30.09 in 7.0 mi ESE 8.1 mph - N/A   Overcast
5:52 AM 57.0 °F 53.1 °F 87% 30.07 in 6.0 mi ESE 8.1 mph - N/A   Overcast
6:04 AM 57.2 °F 53.6 °F 88% 30.07 in 5.0 mi ESE 9.2 mph - N/A   Overcast
6:52 AM 57.0 °F 53.1 °F 87% 30.08 in 5.0 mi ESE 9.2 mph - N/A   Overcast
7:52 AM 55.9 °F 52.0 °F 87% 30.08 in 5.0 mi ESE 9.2 mph - N/A   Overcast
8:52 AM 55.0 °F 51.1 °F 86% 30.07 in 6.0 mi ESE 5.8 mph - N/A   Overcast
9:52 AM 55.0 °F 51.1 °F 86% 30.05 in 8.0 mi ESE 9.2 mph - N/A   Overcast
10:52 AM 54.0 °F 51.1 °F 90% 30.03 in 9.0 mi ESE 12.7 mph - N/A   Overcast
11:52 AM 55.0 °F 51.1 °F 86% 30.03 in 9.0 mi East 10.4 mph - N/A   Overcast
12:52 PM 57.0 °F 52.0 °F 83% 30.01 in 9.0 mi ENE 8.1 mph - N/A   Overcast
1:52 PM 57.0 °F 51.1 °F 81% 30.01 in 9.0 mi ENE 4.6 mph - N/A   Overcast
2:52 PM 57.0 °F 51.1 °F 81% 29.99 in 10.0 mi ENE 8.1 mph - N/A   Overcast
3:52 PM 55.9 °F 51.1 °F 84% 29.94 in 10.0 mi ENE 10.4 mph - N/A   Overcast
4:52 PM 57.0 °F 52.0 °F 83% 29.95 in 9.0 mi East 8.1 mph - N/A   Overcast
5:52 PM 57.0 °F 53.1 °F 87% 29.93 in 8.0 mi East 4.6 mph - N/A   Overcast
6:52 PM 55.9 °F 52.0 °F 87% 29.91 in 8.0 mi East 5.8 mph - N/A   Overcast
7:52 PM 55.0 °F 52.0 °F 89% 29.92 in 8.0 mi East 11.5 mph - N/A   Overcast
8:34 PM 55.4 °F 51.8 °F 88% 29.90 in 9.0 mi East 6.9 mph - N/A   Overcast
8:42 PM 55.4 °F 51.8 °F 88% 29.90 in 9.0 mi ENE 6.9 mph - N/A   Overcast
8:52 PM 55.0 °F 51.1 °F 86% 29.89 in 9.0 mi East 6.9 mph - N/A   Overcast
9:52 PM 55.0 °F 52.0 °F 89% 29.91 in 8.0 mi East 5.8 mph - N/A   Overcast
10:52 PM 55.0 °F 52.0 °F 89% 29.91 in 6.0 mi East 4.6 mph - N/A   Overcast
11:52 PM 55.0 °F 52.0 °F 89% 29.91 in 6.0 mi ENE 3.5 mph - N/A   Overcast